CT1AKV-10 Estrada Real PT current weather conditions

sailwx.info

Wind from 256 at 5 knots gusting 13

Air temperature 33.3° C
Dewpoint -2.4° C

Last reported at 2016-Jul-26 14:45 UTC.
Time now 2016-Jul-26 16:07 UTC

Location: N 39°11' W 008°44'.
View on Google Maps.

See reports from other nearby stations

  
Tides and Currents Weather Stations Pressure Air Temp Water Temp Dewpoint Dewpoint Depression Visibility Wind Speed Wind Dir Waves Ship Positions
date/time (UTC)wind fromknots sea level pressurealtimeterstation pressurevisibilityair tempwater tempwave heightnotes
2016-Jul-26 15:45 319 5 gusting 12 32.2
2016-Jul-26 15:30 286 6 gusting 13 32.2
2016-Jul-26 15:15 316 6 gusting 17 31.7
2016-Jul-26 15:00 273 5 gusting 14 32.2
2016-Jul-26 14:45 256 5 gusting 13 33.3
2016-Jul-26 14:30 318 6 gusting 14 33.3
2016-Jul-26 14:15 290 5 gusting 14 33.9
2016-Jul-26 14:00 305 5 gusting 13 33.9
2016-Jul-26 13:45 291 6 gusting 14 33.9
2016-Jul-26 13:30 318 5 gusting 12 33.9
2016-Jul-26 13:15 289 5 gusting 13 33.3
2016-Jul-26 13:00 316 5 gusting 13 33.3
2016-Jul-26 12:45 308 5 gusting 12 33.3
2016-Jul-26 12:30 309 5 gusting 13 32.8
2016-Jul-26 12:15 276 5 gusting 12 32.2
2016-Jul-26 12:00 307 4 gusting 11 32.2
2016-Jul-26 11:45 297 4 gusting 11 32.2
2016-Jul-26 11:30 272 4 gusting 13 31.7
2016-Jul-26 11:15 276 4 gusting 10 31.1
2016-Jul-26 11:00 297 4 gusting 12 30.6
2016-Jul-26 10:45 298 4 gusting 9 30.6
2016-Jul-26 10:30 314 3 gusting 7 30.0
2016-Jul-26 10:15 289 3 gusting 11 28.9
2016-Jul-26 10:00 296 3 gusting 9 28.3
2016-Jul-26 09:45 316 2 gusting 6 28.3
2016-Jul-26 09:30 330 2 gusting 6 27.8
2016-Jul-26 09:15 309 3 gusting 7 27.2
2016-Jul-26 09:00 316 3 gusting 10 26.7
2016-Jul-26 08:45 310 4 gusting 9 26.7
2016-Jul-26 08:30 309 4 gusting 9 26.1
2016-Jul-26 08:15 311 3 gusting 10 25.6
2016-Jul-26 08:00 320 3 gusting 9 25.0
2016-Jul-26 07:45 308 4 gusting 11 23.9
2016-Jul-26 07:30 314 3 gusting 11 23.3
2016-Jul-26 07:15 296 3 gusting 9 22.2
2016-Jul-26 07:00 303 3 gusting 8 21.7
2016-Jul-26 06:45 293 3 gusting 9 19.4
2016-Jul-26 06:30 313 3 gusting 9 18.3
2016-Jul-26 06:15 278 4 gusting 9 18.3
2016-Jul-26 06:00 273 2 gusting 8 18.3
2016-Jul-26 05:45 299 2 gusting 6 17.8
2016-Jul-26 05:30 288 2 gusting 7 17.8
2016-Jul-26 05:15 307 1 gusting 6 17.8
2016-Jul-26 05:00 311 2 gusting 6 18.3
2016-Jul-26 04:45 276 2 gusting 7 18.3
2016-Jul-26 04:30 310 2 gusting 9 18.3
2016-Jul-26 04:15 313 2 gusting 6 18.9
2016-Jul-26 04:00 312 2 gusting 7 19.4
2016-Jul-26 03:45 317 2 gusting 7 19.4
2016-Jul-26 03:30 313 1 gusting 6 19.4
2016-Jul-26 03:15 285 1 gusting 6 19.4
2016-Jul-26 03:00 276 1 gusting 6 19.4
2016-Jul-26 02:45 293 1 gusting 5 20.0
2016-Jul-26 02:30 289 1 gusting 6 20.0
2016-Jul-26 02:15 315 1 gusting 5 20.6
2016-Jul-26 02:00 294 1 gusting 6 20.6
2016-Jul-26 01:45 298 1 gusting 6 20.6
2016-Jul-26 01:30 298 1 gusting 5 20.6
2016-Jul-26 01:15 321 1 gusting 4 20.6
2016-Jul-26 01:00 295 1 gusting 5 21.1
2016-Jul-26 00:45 326 1 gusting 6 21.1
2016-Jul-26 00:30 291 1 gusting 5 21.1
2016-Jul-26 00:15 273 1 gusting 6 21.7
2016-Jul-26 00:00 286 1 gusting 6 21.7
2016-Jul-25 23:45 322 1 gusting 4 21.7
2016-Jul-25 23:30 325 1 gusting 5 21.7
2016-Jul-25 23:15 318 2 gusting 6 22.2
2016-Jul-25 23:00 320 2 gusting 6 22.2
2016-Jul-25 22:45 311 1 gusting 5 22.8
2016-Jul-25 22:30 316 1 gusting 5 23.3
2016-Jul-25 22:15 311 1 gusting 5 23.3
2016-Jul-25 22:00 287 1 gusting 4 24.4
2016-Jul-25 21:45 334 2 gusting 6 25.0
2016-Jul-25 21:30 317 2 gusting 6 25.0
2016-Jul-25 21:15 308 2 gusting 7 25.6
2016-Jul-25 21:00 313 2 gusting 7 26.1
2016-Jul-25 20:45 317 2 gusting 6 26.1
2016-Jul-25 20:30 301 2 gusting 7 26.7
2016-Jul-25 20:15 315 3 gusting 8 27.2
2016-Jul-25 20:00 299 3 gusting 6 28.3
2016-Jul-25 19:45 292 2 gusting 7 29.4
2016-Jul-25 19:30 314 3 gusting 7 30.6
2016-Jul-25 19:15 305 3 gusting 8 32.8
2016-Jul-25 19:00 311 2 gusting 8 35.0
2016-Jul-25 18:45 325 3 gusting 8 36.1
2016-Jul-25 18:30 290 4 gusting 9 36.7
2016-Jul-25 18:15 303 3 gusting 11 38.3
2016-Jul-25 18:00 312 4 gusting 12 38.9
2016-Jul-25 17:45 314 3 gusting 11 39.4
2016-Jul-25 17:30 302 4 gusting 11 40.0
2016-Jul-25 17:15 277 4 gusting 11 40.6
2016-Jul-25 17:00 276 3 gusting 11 41.1
2016-Jul-25 16:45 304 4 gusting 9 41.1
2016-Jul-25 16:30 301 4 gusting 10 41.7
2016-Jul-25 16:15 307 4 gusting 9 42.2
2016-Jul-25 16:00 320 4 gusting 11 42.8
2016-Jul-25 15:45 307 2 gusting 8 43.9
2016-Jul-25 15:30 314 1 gusting 6 44.4
2016-Jul-25 15:15 167 0 gusting 4 44.4
2016-Jul-25 15:00 160 1 gusting 6 44.4
2016-Jul-25 14:45 147 1 gusting 6 45.0
2016-Jul-25 14:30 147 1 gusting 5 44.4
2016-Jul-25 14:15 126 0 gusting 6 44.4
2016-Jul-25 14:00 149 0 gusting 5 44.4
2016-Jul-25 13:45 133 1 gusting 6 43.9
2016-Jul-25 13:30 140 1 gusting 5 43.9
2016-Jul-25 13:15 124 0 gusting 5 43.9
2016-Jul-25 13:00 108 0 gusting 4 42.8
2016-Jul-25 12:45 122 0 gusting 4 42.2
2016-Jul-25 12:30 140 0 gusting 3 41.7
2016-Jul-25 12:00 074 0 gusting 3 41.1
2016-Jul-25 11:45 106 0 gusting 3 40.6
2016-Jul-25 11:30 138 0 gusting 3 38.9
2016-Jul-25 11:15 182 38.3
2016-Jul-25 11:00 078 0 gusting 3 37.8
2016-Jul-25 10:45 065 0 gusting 3 37.2
2016-Jul-25 10:30 090 0 gusting 2 36.1
2016-Jul-25 10:15 128 0 gusting 3 35.6
2016-Jul-25 10:00 053 0 gusting 3 35.6
2016-Jul-25 09:45 061 0 gusting 3 35.6
2016-Jul-25 09:30 072 0 gusting 3 35.0
2016-Jul-25 09:15 034 0 gusting 3 34.4
2016-Jul-24 17:30 317 5 gusting 13 39.4
2016-Jul-24 17:15 308 4 gusting 12 40.0
2016-Jul-24 17:00 316 5 gusting 13 40.0
2016-Jul-24 16:45 290 4 gusting 13 40.6
2016-Jul-24 16:30 311 3 gusting 9 41.7
2016-Jul-24 16:15 293 3 gusting 8 42.2
2016-Jul-24 16:00 301 2 gusting 9 43.9